Location: Bern�tre
(50.1974°N, 2.0915°E)
Time: 06:23:14
(UTC+00:00)

USA 238 - Pass Details

Date: 18 September 2020
Orbit: 1006 x 1206 km, 63.4° (Epoch: 15 October)

Event Time Altitude Azimuth Distance (km) Brightness Sun altitude
Rises 19:30:56 0° 316° (NW) 3,925 7.9 -15.3°
Reaches altitude 10° 19:33:34 10° 317° (NW) 2,993 7.1 -15.7°
Maximum altitude 19:40:46 85° 47° (NE) 1,165 3.8 -16.8°
Enters shadow 19:45:44 23° 135° (SE) 2,251 4.8 -17.5°
